EW4239 Weather Reports


time (UTC)temp
C
wind
direction
speed
KPH
gust
KPH
rain 1hr
cm
rain 24hr
cm
rain mn
cm
humidity
%
barometer
mb
20260510180050 12 54 6.4 20.9 0.00 0.00 0.00 73 1014.2
20260510174554 12 35 6.4 17.7 0.00 0.00 0.00 73 1014.3
20260510173059 12 61 8.0 25.7 0.00 0.00 0.00 72 1014.3
20260510171548 13 65 6.4 27.4 0.00 0.00 0.00 72 1014.5
20260510170045 12 349 8.0 24.1 0.00 0.00 0.00 70 1014.4
20260510164606 12 2 11.3 32.2 0.00 0.00 0.00 75 1014.6
20260510163050 12 44 3.2 30.6 0.00 0.00 0.00 76 1014.6
20260510161552 12 42 6.4 22.5 0.00 0.00 0.00 76 1014.7
20260510160055 12 77 9.7 24.1 0.00 0.00 0.00 76 1014.9
20260510154547 12 66 4.8 17.7 0.00 0.00 0.00 74 1014.9
20260510153050 12 105 4.8 19.3 0.00 0.00 0.00 76 1015.1
20260510151555 12 45 6.4 19.3 0.00 0.00 0.00 75 1015.2
20260510150053 12 92 6.4 19.3 0.00 0.00 0.00 76 1015.2
20260510144550 13 84 6.4 20.9 0.00 0.00 0.00 75 1015.4
20260510143046 13 30 8.0 25.7 0.00 0.00 0.00 75 1015.4
20260510141549 13 70 6.4 17.7 0.00 0.00 0.00 74 1015.5
20260510140046 13 46 4.8 25.7 0.00 0.00 0.00 73 1015.5
20260510134554 13 64 4.8 25.7 0.00 0.00 0.00 73 1015.6
20260510133050 14 88 3.2 27.4 0.00 0.00 0.00 75 1015.6
20260510131551 14 56 4.8 16.1 0.00 0.00 0.00 73 1015.6
20260510130047 14 63 9.7 27.4 0.00 0.00 0.00 72 1015.5
20260510124552 14 18 8.0 29.0 0.00 0.00 0.00 74 1015.8
20260510123045 14 53 6.4 22.5 0.00 0.00 0.00 71 1015.8
20260510121555 14 83 4.8 27.4 0.00 0.00 0.00 73 1015.9
20260510120104 14 86 6.4 19.3 0.00 0.00 0.00 73 1016.0
20260510114606 14 57 6.4 16.1 0.00 0.00 0.00 73 1016.1
20260510113050 13 57 8.0 20.9 0.00 0.00 0.00 77 1016.3
20260510111546 12 345 8.0 24.1 0.00 0.00 0.00 76 1016.5
20260510110045 13 119 6.4 25.7 0.00 0.00 0.00 74 1016.4
20260510104606 13 62 8.0 19.3 0.00 0.00 0.00 75 1016.6
20260510103054 12 98 9.7 24.1 0.00 0.00 0.00 75 1016.5
20260510101547 12 4 6.4 19.3 0.00 0.00 0.00 77 1016.7
20260510100055 12 116 8.0 29.0 0.00 0.00 0.00 77 1016.8
20260510094549 12 16 3.2 19.3 0.00 0.00 0.00 77 1016.8
20260510093051 12 39 6.4 22.5 0.00 0.00 0.00 78 1016.8
20260510091549 11 24 8.0 24.1 0.00 0.00 0.00 79 1017.0
20260510090056 11 44 8.0 24.1 0.00 0.00 0.00 78 1017.0
20260510084554 11 81 6.4 29.0 0.00 0.00 0.00 81 1017.2
20260510083051 11 329 6.4 24.1 0.00 0.00 0.00 80 1017.3
20260510081549 10 76 8.0 19.3 0.00 0.00 0.00 82 1017.3
20260510080045 10 11 3.2 22.5 0.00 0.00 0.00 83 1017.2
20260510074602 10 93 4.8 17.7 0.00 0.00 0.00 84 1017.0
20260510073050 9 78 3.2 30.6 0.00 0.00 0.00 86 1017.0
20260510071556 9 110 3.2 16.1 0.00 0.00 0.00 87 1016.8
20260510070051 8 56 3.2 12.9 0.00 0.00 0.00 88 1016.9
20260510064603 8 75 6.4 14.5 0.00 0.00 0.00 89 1016.8
20260510063045 8 32 4.8 19.3 0.00 0.00 0.00 89 1016.7
20260510061544 7 94 4.8 20.9 0.00 0.00 0.00 90 1016.6
20260510060052 7 103 4.8 12.9 0.00 0.00 0.00 91 1016.6
20260510054547 7 56 1.6 12.9 0.00 0.00 0.00 91 1016.7
20260510053047 7 38 4.8 20.9 0.00 0.00 0.00 91 1016.8
20260510051554 7 78 1.6 12.9 0.00 0.00 0.00 91 1016.9
20260510050047 7 90 1.6 12.9 0.00 0.00 0.00 91 1016.8
20260510044550 7 62 3.2 9.7 0.00 0.00 0.00 90 1016.8
20260510043059 7 90 3.2 9.7 0.00 0.00 0.00 88 1016.7
20260510041608 7 59 3.2 16.1 0.00 0.00 0.00 86 1016.7
20260510040049 7 4 4.8 17.7 0.00 0.00 0.00 84 1016.8
20260510034550 8 347 4.8 12.9 0.00 0.00 0.00 82 1016.8
20260510033055 8 83 0.0 12.9 0.00 0.00 0.00 80 1017.0
20260510031544 8 66 3.2 14.5 0.00 0.00 0.00 79 1017.1
20260510030052 8 47 1.6 12.9 0.00 0.00 0.00 78 1016.8
20260510024556 9 356 3.2 16.1 0.00 0.00 0.00 77 1017.0
20260510023049 9 43 1.6 19.3 0.00 0.00 0.00 76 1016.9
20260510021555 10 24 3.2 9.7 0.00 0.00 0.00 76 1016.8
20260510020051 10 342 3.2 14.5 0.00 0.00 0.00 77 1016.9
20260510014554 10 28 3.2 14.5 0.00 0.00 0.00 80 1017.0
20260510013102 10 8 3.2 11.3 0.00 0.00 0.00 81 1016.8
20260510011545 11 356 3.2 16.1 0.00 0.00 0.00 80 1016.9
20260510010059 11 101 1.6 12.9 0.00 0.00 0.00 79 1017.0
20260510004556 11 0 3.2 9.7 0.00 0.00 0.00 78 1016.8
20260510003046 11 98 1.6 12.9 0.00 0.00 0.00 78 1016.8
20260510001551 12 93 0.0 11.3 0.00 0.00 0.00 79 1017.0
20260510000045 12 93 3.2 12.9 0.00 0.00 0.00 80 1017.0
20260509234603 12 14 1.6 8.0 0.00 0.00 0.00 80 1017.0
20260509233047 12 332 1.6 8.0 0.00 0.00 0.00 84 1016.9
20260509231545 12 62 1.6 11.3 0.00 0.00 0.00 86 1016.9
20260509230050 12 0 3.2 11.3 0.00 0.00 0.00 86 1016.7
20260509224548 12 45 3.2 16.1 0.00 0.00 0.00 87 1016.6
20260509223050 12 141 1.6 16.1 0.00 0.00 0.00 87 1016.6
20260509221605 12 8 1.6 12.9 0.00 0.00 0.00 87 1016.7
20260509220059 12 46 4.8 14.5 0.00 0.00 0.00 86 1016.8
20260509214549 12 55 3.2 17.7 0.00 0.00 0.00 84 1016.8
20260509213052 13 8 3.2 12.9 0.00 0.00 0.00 82 1016.7
20260509211551 13 72 3.2 12.9 0.00 0.00 0.00 78 1016.7
20260509210059 13 335 1.6 12.9 0.00 0.00 0.00 75 1016.6
20260509204555 13 124 0.0 6.4 0.00 0.00 0.00 75 1016.3
20260509203050 13 328 0.0 4.8 0.00 0.00 0.00 75 1016.2
20260509201549 14 0 1.6 9.7 0.00 0.00 0.00 74 1016.2
20260509200045 15 81 1.6 8.0 0.00 0.00 0.00 73 1016.1
20260509194544 16 23 1.6 6.4 0.00 0.00 0.00 69 1016.1
20260509193049 16 113 1.6 12.9 0.00 0.00 0.00 68 1015.9
20260509191608 16 82 0.0 4.8 0.00 0.00 0.00 67 1015.9
20260509190054 17 117 1.6 9.7 0.00 0.00 0.00 66 1015.8
20260509184545 17 16 1.6 11.3 0.00 0.00 0.00 64 1015.7
20260509183047 18 0 1.6 14.5 0.00 0.00 0.00 64 1015.7
20260509181546 18 55 3.2 11.3 0.00 0.00 0.00 61 1015.7